Accueil
METAR-TAF:

METAR-TAF

Aéroports :

Aéroport de Troyes - Barberey

Troyes, France

latitude: 48-20N, longitude: 004-01E, altitude: 118 m

Observation

Le bulletin a été fait il y a 37 minutes, à 04:00 UTC
Vent 5 kt de ouest/nord-ouest
Température 13°C
Humidité 100%
Pression 1009 hPa
Visibilité 10 km ou plus
Quelques nuages à une hauteur de 1500 ft
Nuages fragmentés à une hauteur de 3100 ft
Ciel couvert à une hauteur de 6400 ft

METAR: LFQB 300400Z AUTO 30005KT 9999 FEW015 BKN031 OVC064 13/13 Q1009

Heure: 06:37 (04:37 UTC)


TAF: absent

Observations et prévisions météorologiques de plus de 4000 aéroports (messages METAR et TAF).

Les stations disponibles sont représentées par des disques jaunes et rouges sur la carte.

Passer la souris dessus pour voir le nom de la station.

Cliquer dessus pour voir les observations et prévisions météorologiques.

Pour changer de carte: cliquez sur les boutons verts avec une croix noire pour zoomer, sur le bouton vert avec un tiret pour effectuer un zoom arrière, ou sur les flèches vertes pour les cartes adjacentes.


METAR-TAF: